CAPE
715 1239 1150 258 549 384 264 225 170 184 146 81 7 109 214 179 132 17 31 26 0 26 502 1330 1942 2079 1633 1559 1659 1553 1587 1568 1501 1595 1562 1709 1641 1462 1582 1359 1158 790 835 1343 1694 1718 1561 1288 1182
1157 1644 710 149 572 227 336 326 253 168 97 131 143 183 199 350 221 152 12 29 10 194 695 1256 2224 2533 1807 1818 1694 1630 1567 1452 1522 1574 1588 1381 1561 1586 1467 822 857 1343 1580 1726 1668 1623 1543 1496 1277
1139 1457 349 461 337 361 376 300 245 119 92 94 115 136 156 193 182 11 43 112 222 717 885 1275 2065 2539 2260 1859 1983 1759 1577 1488 1540 1686 1657 1436 1628 1659 1601 1273 822 1507 1664 1673 1642 1566 1579 1462 1473
851 613 318 427 269 251 396 321 154 107 96 136 128 103 90 140 67 109 210 308 674 1063 957 1685 1914 1849 1875 1959 1751 1774 1596 1493 1729 1263 1117 1620 1678 1424 1576 1179 1017 1289 1726 1592 1387 1131 1169 1238 1135
100 169 440 356 403 410 333 250 169 100 81 48 48 118 28 141 186 400 390 475 641 978 931 1380 2033 2087 2033 1845 1722 1822 1615 1658 1508 1296 1715 1700 1734 1711 1671 1711 1478 1534 1519 1387 1299 1288 1265 1108 1030
401 349 377 392 290 252 314 239 152 218 201 125 101 150 271 527 569 532 470 502 453 725 948 1227 1923 1952 2220 1979 2019 1709 1432 1686 1214 1120 1709 1502 1509 1612 1501 1455 1570 1612 1535 1413 1308 1223 1219 1183 822
392 509 396 273 157 340 292 233 226 327 350 223 266 315 441 593 704 611 463 483 440 521 1224 1327 1247 1877 2176 2036 1913 2081 1809 1689 1350 1710 1739 1812 1578 1679 1635 1519 1622 1476 1330 1196 1134 1169 1392 1037 902
444 476 456 409 223 330 300 252 282 368 453 332 342 315 432 549 632 536 515 311 406 708 1012 1680 1563 1910 1975 1780 1990 2073 1796 1792 1333 1670 1876 1398 1681 1554 1437 1401 1473 1380 1421 1487 1353 1208 1244 1309 1166
461 622 425 258 292 388 311 323 280 237 439 343 469 405 358 584 542 548 439 309 477 716 951 1319 1448 2012 2282 1865 1767 1814 1874 2011 1293 1638 1511 1411 1332 1474 1535 1482 1600 1388 1396 1201 1469 1344 1315 1257 1154
607 560 316 212 103 310 384 360 262 320 401 468 627 414 501 516 475 258 164 196 296 533 736 994 1391 1587 1622 1321 1877 2098 2094 1397 1321 1567 1675 2102 1902 1673 1452 1515 1544 1765 1539 1486 1212 1360 1063 503 203
888 547 603 477 144 334 386 291 219 315 361 419 575 499 541 510 254 125 110 127 53 86 276 742 1325 1813 1283 1273 1854 1649 1743 1646 1722 2323 1775 1490 1235 1287 1160 1089 1117 1311 1406 1777 1264 1198 1726 1370 725
683 734 820 750 253 349 387 326 210 254 299 216 507 483 561 574 385 238 382 363 206 124 266 403 869 1471 1291 1402 1538 1576 1411 1615 1409 1570 1876 1761 1582 1352 1389 1321 1292 1571 970 1647 1014 683 933 1074 1210
627 398 347 559 194 316 354 326 278 207 260 345 622 564 612 651 658 624 631 600 546 373 298 312 717 1332 1290 1521 1450 1352 1101 1277 1187 1484 1496 1743 1748 1651 1730 1655 1717 1871 1214 1154 1329 1525 1337 1349 1077
212 300 136 180 200 366 374 321 230 183 383 525 638 641 696 714 733 754 712 763 734 416 142 170 603 1087 1010 967 1359 1272 966 1115 1375 1389 1389 1708 1602 1798 1745 1779 1646 1717 1761 1669 1431 1716 1628 1650 1474
212 124 102 244 290 392 415 419 362 331 421 547 546 684 728 738 772 859 808 799 749 535 340 96 383 711 877 954 1057 1118 819 534 888 1008 1388 1680 1751 1916 2005 1877 1770 1721 1490 1930 1794 1722 1528 1417 1359
141 77 168 156 349 287 250 347 469 413 449 519 508 618 691 749 753 829 835 758 754 677 550 543 217 437 836 846 1083 1021 1217 1044 994 1140 1386 1388 1561 1999 2175 1950 1804 1841 1654 1794 1809 1931 1838 1831 1735
109 78 85 71 302 312 308 254 151 383 434 473 530 557 603 721 733 777 757 652 601 705 726 855 747 734 995 1306 1241 1155 1274 1308 1542 1775 1859 2040 2122 2139 2254 2069 1924 2063 1857 2073 1998 1939 1884 1964 2005
72 63 35 59 159 283 347 253 220 291 353 433 525 478 559 639 709 767 734 570 458 645 848 988 1023 1108 1282 1339 1436 1259 1259 1336 1357 1508 1771 2066 2136 2117 1910 1911 2203 2325 2015 2146 2076 2254 1974 2033 2096
47 44 19 11 8 179 278 219 212 307 268 334 377 390 417 481 521 582 698 650 406 435 723 953 1158 1374 1263 1111 1090 1190 1285 1336 1309 1472 1876 1981 2082 2251 2293 2058 2266 2262 1959 2061 2244 2107 2361 2189 2088
0 0 0 0 18 109 190 322 251 276 322 302 273 269 234 225 265 203 297 501 517 364 610 916 1098 1459 1463 1242 1204 1148 1295 1205 1264 1441 1763 2200 2128 2293 2254 2445 2422 2344 2112 2530 2579 2487 2282 2212 2110
0 0 0 0 51 54 26 160 153 143 261 297 250 213 151 172 194 178 146 165 327 414 508 706 1199 1641 1501 1723 1279 1192 1040 1227 1239 1217 1427 1984 2383 2310 2412 2530 2426 2375 2547 2389 2921 2606 2517 2143 2275
0 0 0 0 1 0 29 131 204 187 250 234 249 186 128 121 146 176 185 212 240 364 495 660 955 1189 1259 1462 1468 1860 1483 1368 1259 1237 1342 2165 2489 2502 2511 2489 2615 2798 2722 2908 2874 2580 2513 2567 2733
0 0 0 0 0 8 37 132 307 33 207 312 289 236 187 168 148 163 174 231 263 364 447 571 881 1255 1406 1359 1894 1622 1874 1510 1439 1396 1933 2556 2715 2510 2466 2702 2884 2944 2889 2920 3035 3068 3022 2746 2603
0 0 0 0 0 20 0 61 46 124 314 286 288 307 271 190 163 190 224 260 314 359 521 670 935 1150 1261 1244 1444 1918 2327 1961 1555 1679 1583 1925 2236 2295 2595 2554 2799 2911 2883 3067 3020 3271 3193 3023 2801
0 0 0 0 0 0 0 0 21 8 3 28 46 294 330 286 213 201 303 266 360 369 560 706 972 1120 1139 1160 1309 1525 1999 1954 1921 1999 1650 2220 2005 2291 2463 2844 3030 2934 3164 3219 3298 3390 3292 3293 3186
0 0 0 0 0 0 0 0 0 0 0 0 0 51 287 326 252 239 319 370 406 408 582 686 756 1151 1113 1257 1790 2078 1912 1530 1580 1753 1611 1635 1747 2258 2728 2993 3023 3204 3206 3315 3454 3320 3346 3469 3489
0 0 0 0 0 0 0 0 0 0 0 0 0 3 167 298 233 286 360 446 448 424 531 853 930 861 964 1052 1526 1761 1880 1887 1784 2168 1796 1671 2175 1998 2898 3007 2926 3153 3235 3461 3532 3346 3694 3665 3581
0 0 0 0 0 0 0 0 0 2 0 0 0 27 88 157 235 257 406 474 531 495 464 534 818 1199 1283 928 1216 1410 1556 1835 1917 1919 1967 1933 1809 2459 2815 3124 3190 3468 3685 3702 3352 3429 3797 3778 3547
0 0 0 0 0 0 0 0 0 0 0 0 0 1 103 104 147 226 334 529 661 650 590 527 775 890 919 969 1249 1370 1502 1501 1709 1700 1971 2161 2060 2491 2988 3148 3100 3298 3376 3460 3815 3979 3928 3664 3586
0 0 0 0 0 0 0 0 0 0 0 0 0 0 0 176 183 237 295 485 914 1247 840 1092 893 740 853 1360 1655 1257 1509 1790 1383 1615 1859 2176 2388 2584 3212 3550 3458 3619 3703 3765 3755 3280 3211 3332 3347
CIN
-193 -127 -135 -302 -73 -43 -23 -17 -30 -26 -33 -65 -83 -66 -45 -78 -62 -63 -237 -228 0 -140 -46 -1 0 0 0 0 0 0 0 0 0 -1 -1 0 0 -1 0 0 0 -1 0 0 0 0 0 0 0
-113 -71 -219 -304 -40 -12 -14 -30 -20 -34 -48 -63 -70 -59 -64 -63 -147 -179 -137 -223 -177 -90 -33 -4 -1 0 0 0 0 0 0 0 -1 -1 0 0 0 0 0 -2 -1 0 0 0 0 0 0 0 0
-94 -92 -210 -114 -51 -12 -8 -23 -31 -61 -42 -50 -46 -51 -106 -123 -185 -239 -206 -183 -122 -48 -32 -8 0 0 0 0 -2 0 0 -1 0 0 0 0 0 0 -1 0 -3 0 0 0 0 0 0 0 0
-177 -202 -218 -44 -21 -37 -27 -36 -42 -65 -51 -32 -31 -41 -155 -200 -221 -184 -170 -137 -67 -23 -24 0 0 0 0 0 -2 0 0 0 -1 -1 0 0 0 0 0 -8 -1 0 0 0 0 0 0 0 0
-360 -281 -69 -30 -28 -36 -39 -47 -44 -40 -45 -88 -114 -119 -173 -175 -184 -142 -131 -106 -69 -34 -22 -1 0 0 0 0 -2 -2 -1 0 0 0 0 0 0 -1 0 0 -3 0 0 0 0 0 0 -1 -7
-210 -212 -24 -14 -31 -59 -53 -47 -50 -46 -64 -94 -106 -120 -118 -117 -109 -114 -113 -97 -90 -57 -30 -10 0 0 -1 -1 -2 -2 0 0 0 0 0 0 0 0 0 0 0 0 0 0 0 0 0 -3 -5
-143 -76 -35 -41 -44 -46 -59 -31 -53 -47 -57 -73 -78 -64 -104 -98 -90 -102 -126 -113 -108 -83 -21 -9 -6 0 -2 -2 -1 -1 0 0 0 0 0 0 0 0 -1 -2 -1 0 0 0 0 -1 0 -1 -5
-204 -96 -44 -40 -27 -22 -61 -28 -79 -60 -62 -98 -63 -31 -60 -104 -103 -112 -111 -136 -111 -58 -23 0 0 0 0 0 0 -1 0 0 0 0 0 0 0 -1 0 -1 0 0 0 0 0 -1 -1 -1 -3
-297 -46 -11 -23 -41 -26 -63 -68 -95 -105 -64 -64 -47 -39 -57 -121 -116 -100 -120 -132 -109 -60 -25 -3 -1 0 0 0 0 0 0 0 0 0 0 0 0 0 0 -2 -2 0 0 -3 -1 -3 -5 -3 -6
-144 -41 -16 -53 -47 -31 -57 -62 -75 -69 -67 -58 -60 -82 -90 -110 -110 -140 -171 -146 -128 -100 -75 -34 -5 0 0 0 -1 0 0 0 0 0 0 0 0 0 0 -1 -2 0 0 -1 -4 -3 -16 -47 -75
-137 -33 -60 -35 -57 -46 -55 -63 -77 -56 -68 -56 -38 -85 -88 -95 -123 -186 -186 -178 -242 -208 -152 -77 -16 0 -7 -4 0 0 0 0 0 0 0 0 -1 0 0 -2 -2 0 -3 0 -1 -1 -4 -1 -15
-59 -86 -82 -54 -78 -78 -62 -69 -71 -65 -62 -93 -89 -88 -97 -87 -97 -117 -78 -101 -178 -234 -180 -134 -65 -14 -14 -4 0 0 -3 0 0 0 0 -1 0 -3 -2 0 -2 -4 -14 -9 -12 -12 -11 -11 -17
-97 -72 -96 -85 -114 -86 -79 -71 -64 -71 -114 -122 -140 -126 -90 -93 -93 -96 -87 -95 -111 -153 -176 -174 -102 -32 -24 -9 -9 -10 -22 -8 -3 -4 -10 -5 -3 -1 0 -1 -2 -3 -13 -25 -12 -10 -10 -15 -25
-98 -132 -130 -121 -130 -108 -83 -103 -90 -105 -125 -117 -131 -115 -110 -112 -119 -121 -125 -100 -99 -145 -223 -208 -124 -69 -64 -69 -36 -36 -42 -26 -20 -15 -17 -19 -16 -11 -5 -4 -11 -10 -7 -14 -21 -20 -17 -17 -18
-52 -92 -133 -119 -128 -132 -128 -124 -90 -130 -144 -105 -110 -102 -92 -123 -136 -138 -124 -103 -91 -124 -162 -271 -152 -107 -93 -73 -65 -48 -46 -50 -33 -36 -37 -30 -26 -19 -14 -11 -13 -13 -21 -18 -23 -27 -36 -36 -30
-68 -155 -65 -137 -142 -185 -114 -42 -106 -181 -153 -134 -142 -129 -118 -124 -134 -133 -125 -117 -117 -102 -126 -140 -200 -129 -73 -73 -72 -55 -40 -40 -39 -33 -33 -57 -63 -31 -19 -22 -15 -13 -19 -18 -20 -19 -17 -12 -13
-114 -64 -81 -114 -165 -191 -149 -68 -156 -216 -148 -146 -173 -151 -136 -127 -150 -152 -161 -170 -148 -125 -125 -113 -113 -92 -66 -67 -58 -52 -41 -40 -30 -29 -28 -30 -37 -35 -31 -13 -12 -15 -10 -13 -12 -13 -12 -11 -4
-54 -80 -80 -97 -138 -193 -177 -117 -204 -249 -208 -174 -183 -185 -170 -155 -140 -130 -145 -169 -186 -147 -115 -93 -87 -77 -73 -55 -55 -47 -41 -44 -48 -45 -37 -42 -32 -46 -80 -20 -16 -14 -11 -12 -14 -15 -8 -8 -7
-97 -98 -88 -101 -157 -152 -128 -113 -150 -226 -255 -224 -206 -216 -218 -185 -128 -132 -139 -142 -203 -210 -146 -112 -91 -81 -71 -64 -50 -36 -38 -32 -47 -48 -61 -70 -58 -49 -53 -26 -18 -19 -21 -12 -14 -15 -7 -2 -6
0 0 0 0 -198 -199 -164 -160 -183 -241 -243 -219 -222 -227 -253 -243 -222 -238 -190 -160 -169 -208 -178 -129 -113 -91 -94 -70 -63 -49 -45 -31 -24 -31 -42 -50 -63 -63 -54 -45 -25 -23 -15 -12 -11 -9 -1 -4 -9
0 0 0 0 -224 -260 -241 -149 -220 -261 -262 -248 -226 -223 -234 -245 -243 -247 -263 -229 -199 -191 -212 -187 -134 -96 -112 -75 -84 -77 -84 -56 -33 -33 -27 -24 -56 -60 -63 -59 -38 -29 -21 -9 -7 -10 -3 0 -2
0 0 0 0 -30 -3 -254 -27 -192 -206 -262 -302 -237 -223 -228 -244 -266 -264 -245 -239 -249 -221 -222 -201 -172 -154 -149 -120 -82 -42 -38 -35 -38 -28 -21 -13 -42 -48 -58 -53 -46 -37 -19 -23 -15 -15 -11 -4 -1
0 0 0 0 0 -150 -181 -100 -57 -347 -208 -228 -274 -239 -217 -230 -239 -264 -284 -244 -242 -234 -236 -225 -208 -172 -144 -174 -84 -86 -33 -43 -33 -30 -25 -21 -39 -59 -52 -51 -44 -42 -25 -28 -28 -19 -11 -7 -4
0 0 0 0 0 -33 0 -83 -18 -97 -95 -140 -222 -252 -235 -232 -269 -267 -279 -254 -258 -265 -247 -219 -242 -237 -225 -232 -183 -99 -41 -45 -59 -41 -33 -17 -16 -25 -55 -53 -61 -58 -45 -42 -31 -25 -19 -13 -7
0 0 0 0 0 0 0 0 -59 -91 -43 -165 -159 -286 -284 -282 -296 -330 -323 -329 -303 -325 -271 -250 -283 -276 -292 -284 -243 -203 -114 -100 -79 -49 -52 -23 -19 -16 -23 -48 -53 -35 -48 -45 -43 -38 -33 -18 -10
0 0 0 0 0 0 0 0 0 0 0 0 0 -265 -297 -265 -315 -327 -325 -340 -375 -377 -317 -280 -277 -255 -301 -296 -217 -176 -172 -164 -139 -107 -93 -76 -47 -19 -24 -37 -45 -49 -48 -37 -35 -30 -31 -28 -14
0 0 0 0 0 0 0 0 0 0 0 0 0 -115 -312 -290 -280 -319 -304 -340 -371 -384 -378 -280 -259 -291 -294 -272 -247 -227 -205 -176 -154 -129 -143 -110 -69 -48 -41 -42 -42 -41 -38 -31 -27 -17 -23 -14 -8
0 0 0 0 0 0 0 0 0 -49 0 0 0 -322 -318 -274 -307 -348 -324 -322 -347 -359 -378 -376 -313 -268 -284 -277 -274 -253 -252 -225 -175 -166 -155 -133 -114 -72 -55 -42 -37 -24 -24 -19 -31 -18 -15 -6 0
0 0 0 0 0 0 0 0 0 0 0 0 0 -29 -256 -280 -272 -249 -336 -343 -343 -342 -340 -373 -360 -344 -349 -319 -273 -258 -257 -260 -237 -197 -166 -141 -113 -93 -62 -50 -41 -30 -24 -24 -22 -9 -6 -2 0
0 0 0 0 0 0 0 0 0 0 0 0 0 0 -12 -310 -283 -271 -275 -370 -366 -332 -338 -347 -396 -392 -379 -328 -293 -312 -292 -261 -229 -211 -175 -151 -127 -93 -56 -41 -35 -22 -15 -16 -16 -4 -2 -4 0
Wind_Speed
10 9 10 12 7 5 5 5 4 5 3 nan nan 8 5 7 6 nan nan nan nan nan 6 4 5 3 5 5 6 4 4 5 7 6 5 5 7 7 8 8 9 9 9 8 8 7 7 9 10
11 11 11 8 7 5 8 11 4 6 nan 5 4 3 6 6 6 5 nan nan nan 7 6 4 4 2 3 6 8 7 4 6 6 6 5 5 6 7 9 10 9 8 8 10 10 11 12 12 15
13 17 12 7 4 3 4 5 3 7 nan nan 3 8 6 8 6 nan nan 8 7 5 4 2 4 3 5 7 9 6 5 7 9 8 7 7 5 7 10 10 8 6 8 9 10 11 12 15 16
12 13 11 8 4 4 5 1 8 9 nan 7 6 8 nan 11 nan 4 6 7 6 3 3 2 5 3 4 8 9 6 7 8 8 5 11 11 9 11 10 11 14 12 9 10 11 11 10 11 12
10 11 11 5 7 8 5 4 5 5 nan nan nan 7 nan 8 7 4 8 4 5 5 4 5 6 5 6 8 8 7 9 7 6 7 10 10 10 12 10 10 10 11 13 12 11 14 11 13 12
13 13 11 6 7 6 2 7 5 7 9 9 12 12 8 9 4 3 4 4 3 6 4 6 5 6 7 7 8 7 7 6 7 10 11 10 8 9 10 10 11 11 11 12 14 13 16 20 18
18 14 9 10 7 6 5 7 4 5 3 3 10 11 11 8 7 3 3 3 2 6 4 5 5 8 7 9 8 8 8 6 8 12 12 11 9 10 11 11 12 13 12 13 16 18 11 15 17
18 16 11 12 10 9 10 8 6 2 3 9 1 4 9 8 8 5 3 3 4 6 6 6 9 9 10 7 8 7 7 7 7 11 10 11 9 8 11 11 12 12 13 12 14 15 16 13 13
18 15 13 12 11 9 13 8 5 5 14 7 5 6 11 12 8 4 4 5 6 8 8 8 8 8 9 10 9 8 9 5 6 9 7 11 10 9 12 12 14 12 13 10 8 11 11 12 13
18 14 12 13 16 16 23 18 15 13 18 9 2 9 10 5 4 1 2 7 8 9 9 11 9 8 9 10 9 8 8 7 7 8 8 11 11 10 11 13 15 13 12 12 12 12 12 11 14
15 16 14 17 20 16 19 18 17 22 23 19 16 6 4 4 4 6 8 10 nan nan 10 11 10 10 9 7 7 8 8 9 9 7 9 10 10 9 11 12 12 12 11 11 11 11 10 12 12
22 23 19 19 12 13 19 18 20 25 16 17 14 11 10 12 14 12 13 13 11 10 11 10 11 10 8 7 6 8 8 9 9 8 8 8 9 7 8 8 8 9 9 9 11 10 10 12 13
29 26 26 23 16 15 14 18 15 22 12 16 15 11 16 19 17 16 15 12 11 10 8 10 9 7 6 5 5 6 6 7 8 7 5 4 5 4 5 6 7 6 6 7 8 9 10 11 11
30 31 28 23 22 15 18 14 14 17 13 16 21 21 17 19 16 12 12 11 10 8 8 8 8 6 5 4 4 6 7 7 7 7 5 5 4 4 4 5 5 5 6 7 7 8 10 12 11
26 24 21 18 23 21 18 15 21 13 16 18 18 17 17 15 14 14 11 9 8 8 6 nan 6 7 7 6 5 6 5 4 5 5 3 4 4 4 4 3 3 3 4 8 10 10 11 11 12
24 nan 21 22 24 23 29 23 21 16 16 18 18 15 14 14 13 10 7 8 8 7 8 6 6 7 7 5 3 5 4 4 2 0 2 5 6 5 3 4 5 6 7 8 9 11 12 12 11
16 nan nan nan 29 24 30 26 18 22 20 17 16 15 14 12 13 10 9 8 8 8 6 6 7 7 6 4 4 4 4 3 2 2 1 3 4 4 5 6 8 9 9 10 10 11 12 9 10
nan nan nan nan 15 25 29 36 25 30 26 23 20 15 12 12 15 13 11 7 7 7 7 6 5 7 4 2 1 2 1 2 1 1 2 5 6 7 10 9 10 12 12 13 13 13 12 11 10
nan nan nan nan nan 16 25 29 29 31 31 26 23 20 16 12 14 10 9 8 6 5 6 7 7 7 4 3 2 3 2 0 2 3 5 7 8 9 9 10 11 13 14 11 11 11 11 9 10
nan nan nan nan nan 14 14 26 25 30 35 31 28 23 20 19 12 9 10 9 9 8 8 6 8 8 7 5 3 1 3 3 3 3 3 6 9 11 12 14 15 16 11 11 11 9 6 6 10
nan nan nan nan nan nan nan 16 21 25 28 26 26 24 21 21 17 14 12 12 10 9 11 10 10 10 10 11 6 2 1 0 1 5 5 6 9 11 14 15 13 13 14 11 9 8 10 5 7
nan nan nan nan nan nan nan 13 11 18 23 25 28 28 24 21 18 13 12 10 8 9 9 10 10 11 11 12 10 10 9 9 6 5 6 6 8 12 13 12 10 10 9 10 7 9 10 11 13
nan nan nan nan nan nan nan 11 5 nan 21 27 28 29 30 24 22 19 15 12 11 8 8 8 7 8 9 10 10 11 11 9 8 10 14 12 11 13 13 12 9 12 10 10 9 8 10 13 16
nan nan nan nan nan nan nan nan nan 8 15 15 26 30 31 28 24 22 20 16 11 10 11 10 10 13 12 11 11 9 10 12 11 12 14 15 13 13 15 15 16 15 12 11 9 7 11 11 15
nan nan nan nan nan nan nan nan nan nan nan nan nan 29 29 25 24 24 24 21 18 15 15 14 15 16 15 14 14 13 13 14 16 16 15 15 15 16 15 14 16 15 13 11 7 6 9 11 14
nan nan nan nan nan nan nan nan nan nan nan nan nan nan 26 27 23 21 24 22 21 20 20 20 20 20 18 17 16 14 15 12 12 14 14 14 14 13 11 11 11 12 11 8 7 6 7 9 13
nan nan nan nan nan nan nan nan nan nan nan nan nan nan 18 24 22 23 21 20 19 20 22 21 20 21 20 20 17 16 15 15 13 14 13 13 13 12 10 9 9 9 6 5 5 6 6 7 8
nan nan nan nan nan nan nan nan nan nan nan nan nan nan nan 12 17 17 15 17 20 20 18 18 19 19 20 20 18 16 17 16 16 14 15 14 13 13 13 12 10 7 5 4 4 5 5 6 7
nan nan nan nan nan nan nan nan nan nan nan nan nan nan 4 1 9 11 16 12 14 15 15 16 16 17 17 19 18 16 14 16 16 16 16 15 15 15 15 16 15 14 14 10 11 9 5 6 8
nan nan nan nan nan nan nan nan nan nan nan nan nan nan nan 6 6 7 10 10 12 12 11 10 11 13 15 13 13 15 14 14 15 14 16 18 21 21 21 20 21 21 18 17 15 11 13 14 13
Wind_Direction
92 117 125 113 107 94 164 169 139 240 153 nan nan 112 119 183 147 nan nan nan nan nan 352 22 107 39 50 71 81 80 89 89 66 40 11 353 15 9 1 359 4 20 21 9 357 350 342 338 319
13 135 127 124 140 157 140 134 218 144 nan 310 241 196 160 166 173 231 nan nan nan 354 14 43 120 54 43 66 84 79 75 80 70 49 28 9 11 3 2 358 3 11 21 17 356 349 352 346 345
63 127 109 130 138 128 111 116 265 273 nan nan 190 179 166 167 190 nan nan 330 341 7 28 65 70 87 30 66 80 83 85 82 77 39 28 28 359 9 21 15 16 27 26 17 2 9 3 14 15
87 92 113 128 188 115 112 174 282 266 nan 194 264 220 nan 151 nan 161 310 335 346 40 78 64 104 97 83 73 86 72 74 87 88 55 55 49 61 62 64 62 45 49 43 29 20 14 34 37 39
95 116 140 146 132 120 111 304 262 214 nan nan nan 242 nan 194 189 280 306 348 10 52 75 91 103 89 75 92 84 80 77 68 79 51 69 59 61 69 65 48 43 51 41 30 17 21 61 50 48
98 111 129 109 98 109 96 338 293 241 231 237 242 245 230 208 251 300 304 313 68 40 87 112 91 88 96 92 92 89 73 61 72 77 81 70 62 67 52 33 49 70 53 37 32 44 79 64 59
108 115 127 106 104 82 27 349 295 294 305 231 267 230 211 221 238 207 270 235 69 86 106 116 103 100 105 111 98 79 60 81 87 76 78 79 74 74 61 61 81 71 70 61 58 62 99 63 52
110 113 107 105 84 82 18 6 337 298 268 316 328 234 226 224 251 205 180 194 115 105 127 131 118 118 123 108 95 95 88 77 85 84 63 80 81 77 58 69 73 79 74 61 62 58 59 72 66
111 114 105 87 57 72 31 17 353 309 327 320 284 215 239 266 257 208 175 152 126 128 125 123 118 130 132 120 106 98 94 98 97 89 82 82 93 86 78 84 98 90 71 61 43 46 50 51 71
106 109 94 86 72 71 37 29 355 3 350 348 258 210 257 283 271 265 90 121 114 113 112 129 124 123 122 119 124 109 113 122 119 104 98 97 92 93 99 88 89 93 79 70 62 49 42 39 56
96 101 100 86 67 46 24 31 23 23 38 63 53 10 15 29 71 95 107 114 nan nan 125 118 119 121 114 125 135 137 132 136 122 103 98 101 99 97 65 77 75 91 78 80 53 36 39 61 56
87 82 82 93 66 28 28 27 33 30 44 53 42 19 45 61 58 73 100 113 120 115 116 114 112 121 118 139 140 151 135 137 126 108 97 99 91 78 72 70 75 69 66 56 54 47 52 43 33
84 86 86 80 50 46 33 40 52 37 49 22 12 19 64 66 74 90 104 114 117 113 110 106 103 110 115 113 140 150 136 132 131 110 68 80 88 84 74 67 67 60 49 41 43 41 45 33 35
88 82 88 70 52 46 45 57 58 48 18 18 25 33 54 66 67 83 94 101 101 115 114 112 109 112 112 123 118 151 139 142 139 123 108 59 59 37 61 60 50 44 33 12 22 23 24 19 19
97 93 77 74 56 54 39 57 59 43 26 13 30 45 51 62 66 71 73 85 82 96 116 nan 112 116 114 104 106 128 127 131 139 135 89 49 51 40 42 24 5 6 14 19 2 8 6 8 11
109 nan 92 68 55 62 52 69 44 24 20 23 22 38 61 64 59 75 72 66 76 73 76 100 107 88 77 84 103 126 141 154 153 93 354 29 42 37 19 348 331 325 341 354 352 358 0 4 7
120 nan nan nan 48 42 53 78 58 25 24 23 22 31 51 66 81 87 77 66 62 61 59 61 58 62 58 79 128 129 130 135 151 116 38 27 19 6 338 321 314 323 331 337 340 352 355 7 11
nan nan nan nan 58 44 46 63 57 39 32 26 24 26 37 58 65 62 57 50 43 39 52 56 61 59 66 120 120 114 117 119 139 74 360 357 334 338 323 337 333 339 349 353 349 3 356 6 359
nan nan nan nan nan 62 60 60 39 36 40 40 32 28 29 39 63 66 57 45 34 31 21 33 29 27 13 43 68 104 105 274 269 307 344 336 353 350 351 353 358 10 15 11 9 13 12 9 342
nan nan nan nan nan 67 101 75 59 34 32 38 34 24 34 37 36 50 49 31 22 20 37 17 27 16 18 35 32 352 302 319 311 319 5 357 8 357 5 10 16 20 14 26 30 32 36 360 345
nan nan nan nan nan nan nan 79 56 45 39 41 45 41 30 37 36 33 32 32 31 32 42 45 50 46 41 40 40 15 297 20 357 25 21 5 359 359 5 7 16 18 29 57 65 46 28 7 344
nan nan nan nan nan nan nan 116 69 43 38 39 45 48 40 36 35 36 37 25 14 33 43 48 48 43 40 29 36 32 16 0 3 10 18 5 3 3 4 7 22 50 71 82 69 42 40 55 63
nan nan nan nan nan nan nan 117 96 nan 47 39 45 48 46 39 43 38 30 34 35 26 23 23 35 61 53 35 30 19 40 51 59 56 56 47 31 22 10 9 48 95 92 83 76 69 64 54 43
nan nan nan nan nan nan nan nan nan 76 62 41 41 45 52 49 47 46 37 36 41 43 35 46 57 66 64 55 53 56 57 61 68 63 60 53 51 42 42 65 85 91 90 86 85 71 51 49 47
nan nan nan nan nan nan nan nan nan nan nan nan nan 39 49 52 48 46 42 38 45 51 35 46 59 70 71 70 71 65 60 52 52 56 61 61 57 59 63 80 95 104 102 99 93 63 58 42 45
nan nan nan nan nan nan nan nan nan nan nan nan nan nan 45 44 46 45 42 39 40 40 42 47 52 58 57 68 72 65 50 54 59 56 57 57 57 60 67 77 92 96 101 99 88 66 58 43 52
nan nan nan nan nan nan nan nan nan nan nan nan nan nan 35 23 30 33 42 30 30 39 39 37 42 51 48 50 58 60 56 50 47 45 46 56 57 54 51 54 67 71 71 76 85 91 73 39 31
nan nan nan nan nan nan nan nan nan nan nan nan nan nan nan 19 20 31 26 34 15 25 29 38 38 39 41 42 44 51 47 41 41 37 34 34 40 38 31 25 25 40 23 17 28 21 20 12 12
nan nan nan nan nan nan nan nan nan nan nan nan nan nan 229 110 60 48 10 22 31 2 7 21 27 31 34 34 30 28 25 22 20 21 13 9 12 11 11 11 10 1 3 357 347 339 317 308 304
nan nan nan nan nan nan nan nan nan nan nan nan nan nan nan 311 346 51 46 7 357 348 336 350 4 19 28 25 14 16 4 357 3 8 1 357 1 354 354 352 352 351 346 332 327 300 294 289 280